THORAD DELTA 1 DEB, 8394

Orbit data source: Space-Track

THORAD DELTA 1 DEB, 8394 is space debris in SSO originally from a launch on Fri, 15 Nov 1974 UTC launched from the Air Force Western Test Range (AFWTR). Debris objects in space refer to the collection of defunct objects orbiting the Earth. Examples of debris include non-operational satellites, rocket bodies, and fragments generated from explosions, collisions, or faulty payload assembly.

Loading next visibility...
Identifier
8394, 1974-089BW
Orbit
SSO
Country
Flag of USUS
Related business
Manufacturer
Unknown
Mission
Spacecraft
Bus & Motor
Unknown
Mass
Unknown
Launch date (UTC)
1974-11-15 (51 years ago)
Launch vehicle
Unknown
Launch site
Air Force Western Test Range (AFWTR)
Object type
Payload
Rocket body
Debris
Shape & HBR
Unknown shape, 0.1 m
Radar Cross Section
Small (<0.1 m²)

Expand to show TLE details & history
Last TLE update: 1 day ago

TLE from 1 day ago
0 THORAD DELTA 1 DEB
1 08394U 74089BW  25286.99773594 -.00000007  00000-0  32328-3 0  9997
2 08394 102.0977 309.7991 0174278  24.5101 350.8374 12.20447123909433
Epoch: 2025-10-13T23:56Z
TLE epoch observation values (Epoch: 2025-10-13T23:56:44.385Z)
Latitude
14.65943°
Longitude
-75.37664°
Altitude
1,455.352 km
Speed
7.197 km/s
True Right ascension
20h 26m 24s
True Declination
14° 34' 59"
Sunlit
Object was in daylight at epoch
Visualization orbit readout
Latitude
Unknown
Longitude
Unknown
Altitude
Unknown
Speed
Unknown
Apparent Right ascension
Unknown
Apparent Declination
Unknown
Sunlit
N/A
Visualization observer readout
Local Sidereal Time
23:21:37
Azimuth
Unknown
Elevation
Unknown
Doppler factor
Unknown
Orbital elements
Apogee altitude
1,727.035 km
Perigee altitude
1,449.364 km
Semi-major axis
7,966.337 km
Eccentricity
0.01743
Inclination
102.0977°
RAAN
309.7991°
Arg. of periapsis
24.5101°
True anomaly
350.51241°
Mean anomaly
350.8374°
Eccentric anomaly
350.67561°
Mean motion
3.0525 °/min
Orbital period
117.94 mins
BSTAR
0.00032328
Loading maneuver chart data...
Computing Atmospheric mass density...

Documentation

Showing up to 5 results
|